Wind_Speed
7 8 9 10 11 12 13 13 14 15 16 17 17 18 19 20 22 23 25 26 25 24 23 22 21 20 20 20 24 22 23 25 25 25 26 26 26 26 27 22 24 32 34 33 36 36 35
8 9 10 11 12 13 13 14 15 16 16 17 18 18 20 21 23 23 24 26 27 27 25 23 22 23 23 26 24 23 24 24 24 25 26 26 26 27 31 31 33 30 34 36 36 38 38
8 10 11 12 13 13 14 14 15 16 17 18 19 19 20 22 23 24 26 27 27 28 27 26 25 25 24 25 27 26 26 25 25 24 24 25 26 25 27 28 26 30 34 36 40 41 40
9 11 12 13 14 14 15 16 17 18 19 19 20 21 22 24 25 26 26 27 27 28 29 28 26 26 28 27 24 21 19 18 20 22 23 22 21 24 26 30 35 34 27 29 20 20 23
11 12 13 13 14 15 16 17 18 19 21 21 22 23 23 24 26 26 26 27 28 28 28 25 28 26 19 17 17 22 27 27 26 25 25 25 24 25 26 27 23 18 27 24 24 19 21
12 13 14 15 15 16 17 19 20 21 22 23 24 24 24 25 25 27 28 28 28 27 25 27 21 23 22 26 25 23 20 18 19 19 19 17 18 22 21 15 25 25 29 36 36 28 28
12 13 14 16 16 17 18 20 21 22 23 24 25 26 26 26 27 28 29 29 29 28 27 25 30 28 25 23 17 16 16 16 15 16 18 17 21 22 22 24 31 35 37 40 41 33 34
12 14 15 16 17 18 20 22 23 24 24 25 26 27 27 27 27 27 28 29 28 27 30 27 23 17 14 13 14 14 14 17 21 21 19 22 26 27 24 26 29 30 35 44 42 32 30
13 14 16 17 18 19 21 23 24 25 25 25 26 26 27 27 27 26 26 26 26 28 27 20 10 8 9 11 16 15 15 28 30 29 23 26 29 30 33 29 27 32 32 38 40 42 39
13 14 15 17 18 19 21 23 24 26 26 27 27 27 28 28 27 26 25 25 26 26 12 7 7 7 9 14 16 20 35 31 27 19 20 18 18 22 24 29 28 42 35 40 42 39 37
14 15 17 18 20 22 24 25 25 27 27 28 29 31 28 26 26 26 25 25 24 20 4 8 7 10 12 19 30 30 31 22 20 25 27 36 31 31 28 29 25 36 32 35 36 38 37
15 16 17 19 21 23 25 27 28 27 29 31 32 29 26 24 25 24 24 24 23 5 2 10 11 12 29 35 32 23 20 31 36 32 23 25 19 20 17 20 22 23 21 27 28 31 23
16 18 19 20 22 24 25 28 28 28 31 33 29 27 25 25 23 23 23 22 8 2 9 10 20 33 36 28 20 18 28 25 18 21 21 25 16 11 14 27 22 20 29 12 16 16 16
17 19 21 22 24 25 27 29 29 31 33 31 28 26 24 22 21 22 21 17 3 8 18 21 30 32 16 21 17 26 18 21 15 14 20 17 26 19 24 25 26 28 25 17 11 10 11
18 20 21 23 24 26 27 29 30 31 30 28 25 24 23 22 21 19 17 6 4 13 19 27 26 11 8 12 22 18 25 6 9 14 13 21 19 33 36 35 24 27 28 25 21 27 22
19 22 24 25 27 28 29 30 31 31 26 25 23 23 19 19 21 15 18 10 12 17 20 21 10 10 15 18 17 21 14 8 12 13 16 25 41 35 30 27 22 23 24 20 18 9 17
21 22 25 27 28 29 31 32 31 27 25 23 23 22 19 19 18 16 16 13 17 17 18 15 15 14 11 16 17 18 8 14 14 23 21 27 22 31 19 26 26 22 10 10 16 21 7
22 23 26 28 30 31 35 32 29 24 22 22 21 17 18 22 17 21 17 17 16 17 18 16 14 11 15 15 14 7 13 11 22 21 27 17 20 20 29 19 12 27 19 15 10 9 18
24 25 27 30 35 36 33 29 25 22 22 22 20 16 18 13 16 20 19 16 16 17 17 15 14 16 15 13 10 10 13 17 20 18 14 18 13 21 22 18 22 22 18 18 12 13 13
26 27 30 34 33 32 27 23 22 22 22 23 21 16 21 12 20 17 17 15 17 16 17 16 11 11 11 11 8 10 16 17 14 12 12 15 16 18 17 25 23 13 12 30 1 9 7
27 29 34 29 29 24 20 20 20 21 22 23 21 16 21 19 21 18 15 13 15 14 13 10 5 9 10 8 11 10 14 13 11 14 16 13 16 22 18 7 17 21 25 25 25 22 16
25 23 27 26 23 18 17 20 21 22 23 21 22 24 25 22 22 21 16 16 14 12 11 7 9 11 8 7 8 14 13 11 9 15 15 14 18 18 17 10 7 19 20 22 21 19 17
25 25 26 24 16 14 16 18 21 22 22 21 23 25 27 24 20 18 17 18 12 13 9 9 11 10 7 7 7 4 6 5 9 15 15 14 18 15 12 18 8 5 19 22 22 16 17
22 24 23 20 13 14 16 18 19 20 20 22 24 27 27 22 15 16 17 12 14 12 8 9 9 8 6 5 2 3 7 9 8 10 13 15 15 12 13 18 3 1 9 18 23 16 13
23 23 23 17 12 14 16 18 20 20 20 22 25 28 25 20 12 16 12 14 12 11 9 8 9 8 6 5 3 4 3 5 5 10 13 12 11 13 10 18 1 3 14 27 32 23 11
22 24 21 15 10 13 16 18 19 19 20 23 26 29 25 22 15 12 8 12 8 7 7 9 9 6 6 5 2 5 5 9 5 10 12 9 10 11 14 12 4 6 19 24 21 9 12
23 23 20 11 9 12 16 18 18 19 21 24 28 27 24 20 12 9 10 7 6 8 8 9 7 8 6 4 4 5 4 7 8 11 15 13 13 13 14 13 5 14 25 35 10 16 34
22 21 18 9 9 13 16 17 17 19 21 25 28 26 23 20 10 11 8 5 5 11 7 8 4 10 6 5 3 5 5 6 6 11 8 9 11 13 12 13 4 23 30 24 22 30 34
21 22 17 9 9 13 16 15 16 19 23 27 27 23 22 17 9 13 6 5 6 11 11 9 10 11 7 3 4 4 8 6 9 6 11 4 11 11 7 16 18 20 28 15 26 34 32
Wind_Direction
348 355 351 346 344 344 346 343 344 343 343 344 342 340 341 342 342 342 343 342 339 336 333 329 323 315 309 302 295 289 286 282 279 277 275 275 273 276 271 276 265 270 283 276 277 276 276
342 347 342 339 340 341 340 339 338 338 339 338 336 334 334 334 335 337 336 335 333 333 330 326 322 313 306 295 298 293 289 282 276 276 275 273 270 271 271 268 267 269 275 278 279 279 278
334 338 337 336 336 336 336 337 336 335 334 332 330 329 327 326 327 330 331 330 328 328 325 323 319 312 306 298 294 288 284 283 282 281 278 274 274 271 269 277 272 278 282 282 280 281 279
329 332 331 333 334 334 335 336 335 333 331 330 327 326 325 325 326 327 328 326 326 324 322 320 318 312 304 298 294 291 291 289 286 284 281 281 277 274 274 278 277 285 282 279 276 274 264
327 328 329 331 332 333 333 332 333 333 332 330 327 326 326 325 325 324 324 324 323 320 319 318 314 311 303 299 295 294 293 290 287 286 283 283 280 279 278 282 284 266 267 272 272 282 270
325 325 325 329 332 331 332 333 334 333 332 330 329 329 329 326 324 323 323 323 320 319 320 317 312 309 294 296 299 299 298 297 296 295 295 291 287 288 281 262 263 279 276 276 275 272 273
321 321 324 328 330 331 332 333 333 332 332 332 330 329 328 326 325 323 322 320 323 324 320 313 303 296 296 301 304 307 308 308 308 304 301 292 287 271 280 274 275 277 276 276 278 278 273
314 316 322 327 330 332 332 332 332 331 332 332 331 329 328 327 325 325 326 327 325 321 319 313 303 302 298 306 311 312 312 319 314 303 291 287 278 296 279 276 277 276 274 277 281 280 276
312 318 325 328 330 332 331 331 330 330 331 332 332 332 329 327 327 326 326 325 324 324 319 311 307 306 309 317 316 310 305 311 308 300 295 279 283 283 284 280 281 277 275 280 280 287 280
311 317 323 324 327 329 328 328 329 330 330 331 331 331 329 326 326 326 327 326 326 326 305 301 308 306 312 322 318 306 307 306 300 300 306 290 299 299 294 285 284 283 283 282 283 284 281
310 317 320 324 328 330 330 330 331 332 332 334 331 328 329 330 331 330 330 329 330 325 301 310 305 307 303 312 308 302 307 302 304 297 298 288 293 294 294 293 290 283 289 284 281 276 276
311 316 320 324 328 330 331 332 331 332 334 333 330 330 332 332 331 332 332 334 333 331 261 312 305 302 311 312 313 313 312 310 308 304 304 299 292 295 290 305 305 303 302 302 284 265 262
312 315 319 323 326 329 331 332 331 333 334 333 332 333 335 335 335 336 339 343 345 339 320 301 311 315 319 316 317 315 321 329 349 330 320 316 315 282 301 339 328 314 321 302 294 286 277
307 314 317 322 326 327 329 331 330 332 335 335 334 334 335 337 339 342 341 346 311 302 308 304 311 318 314 323 312 321 333 323 313 351 322 325 306 326 321 337 316 309 305 301 302 307 320
307 309 314 319 321 323 327 328 331 333 335 334 335 335 337 340 341 340 348 343 304 311 309 316 328 326 313 333 329 332 335 333 348 356 354 319 295 303 310 312 302 304 288 291 289 278 269
306 311 314 316 319 322 324 327 333 334 335 335 336 337 336 336 338 341 353 336 313 314 313 322 329 315 319 326 335 337 336 324 329 341 340 313 306 312 316 313 307 294 298 302 283 263 258
304 309 312 313 316 320 326 331 333 335 337 336 337 337 335 336 341 343 346 336 323 322 323 325 311 303 311 324 329 326 314 317 344 330 324 317 308 313 322 332 330 319 348 340 280 270 286
301 307 310 313 317 320 324 329 333 337 337 336 338 337 338 339 341 345 347 337 329 327 327 323 316 311 309 324 323 326 320 319 326 329 325 328 310 310 318 319 312 10 352 350 339 344 309
301 305 309 312 316 318 323 330 335 339 340 341 343 340 338 340 342 344 344 335 329 323 319 312 307 311 317 330 327 326 330 333 330 333 339 340 334 326 335 342 333 338 338 315 285 287 283
300 303 306 312 320 320 325 332 337 340 342 344 347 341 341 340 350 346 342 335 325 324 318 320 318 337 335 332 329 314 333 337 341 341 354 345 333 340 332 321 324 348 18 36 82 335 341
295 301 318 314 314 319 327 332 336 340 344 346 350 346 351 337 344 345 344 334 325 324 322 332 323 338 337 332 332 330 336 343 348 358 345 345 329 331 326 350 51 48 38 33 29 22 21
314 308 307 309 315 320 325 332 336 341 346 349 350 357 351 348 346 343 345 340 333 330 334 314 337 332 335 328 318 320 326 342 345 344 350 349 335 333 324 16 75 54 35 25 23 2 2
307 305 307 314 314 318 326 329 335 337 341 343 353 352 353 349 346 348 336 332 336 342 329 331 341 340 331 306 331 339 351 346 347 345 347 348 345 341 336 340 223 16 16 13 3 347 353
309 309 310 311 306 315 325 327 331 335 340 345 350 353 355 348 342 342 338 342 336 339 339 331 345 349 338 336 25 4 1 4 1 355 360 342 346 341 332 347 359 153 357 3 354 340 327
312 308 310 305 301 314 320 326 332 337 341 345 349 351 354 354 341 346 349 346 342 345 355 348 343 348 354 4 359 323 324 350 336 347 355 354 343 341 345 327 171 77 343 354 346 332 297
311 309 308 294 296 313 320 328 332 336 341 344 346 350 353 358 348 344 354 352 346 352 346 344 351 358 7 4 350 341 357 337 326 345 353 350 349 351 341 335 327 344 330 328 330 283 270
302 305 302 281 298 315 324 328 333 337 340 342 346 349 352 357 347 356 358 358 11 7 353 345 330 352 20 359 348 351 346 344 335 344 344 350 353 356 342 329 300 326 327 326 313 305 313
296 297 287 277 302 319 324 327 330 334 338 343 345 347 350 354 355 359 359 15 11 16 9 345 5 349 348 17 345 347 315 333 333 321 348 338 345 347 330 319 331 314 319 341 305 305 316
291 292 282 279 303 321 325 327 330 333 337 342 344 345 350 356 354 356 8 9 346 357 10 353 359 354 330 329 326 317 313 316 319 329 336 301 332 313 293 295 307 305 318 312 307 316 320
Height
3172 3171 3169 3167 3165 3163 3161 3159 3157 3154 3152 3149 3146 3143 3140 3137 3134 3130 3127 3123 3119 3116 3113 3110 3106 3104 3102 3100 3098 3096 3094 3092 3090 3089 3088 3087 3086 3085 3083 3083 3080 3075 3075 3074 3071 3069 3068
3172 3171 3169 3167 3165 3163 3160 3158 3156 3153 3150 3148 3145 3142 3138 3135 3132 3129 3125 3121 3117 3113 3110 3107 3104 3101 3099 3096 3093 3091 3089 3087 3085 3084 3083 3082 3080 3079 3075 3074 3072 3071 3067 3064 3063 3061 3060
3172 3170 3168 3166 3164 3162 3159 3157 3154 3152 3149 3146 3143 3140 3137 3133 3130 3126 3123 3119 3115 3111 3107 3103 3100 3096 3094 3092 3088 3085 3083 3082 3080 3079 3077 3076 3075 3074 3070 3068 3065 3063 3058 3056 3055 3053 3051
3171 3170 3168 3166 3163 3161 3158 3155 3153 3150 3146 3143 3140 3137 3134 3131 3127 3124 3120 3116 3112 3107 3103 3099 3096 3092 3088 3085 3082 3080 3079 3078 3076 3074 3072 3071 3071 3069 3066 3064 3059 3057 3054 3048 3049 3047 3046
3171 3169 3167 3165 3162 3159 3157 3154 3151 3148 3144 3141 3138 3135 3131 3128 3124 3120 3116 3112 3108 3104 3099 3096 3092 3087 3083 3080 3079 3077 3075 3073 3071 3069 3067 3066 3065 3064 3062 3059 3056 3054 3045 3046 3047 3045 3040
3170 3168 3166 3164 3161 3158 3155 3153 3150 3146 3143 3139 3135 3131 3128 3124 3120 3116 3112 3108 3104 3100 3096 3092 3087 3087 3080 3077 3074 3071 3069 3068 3066 3065 3064 3064 3061 3058 3056 3056 3049 3046 3043 3039 3036 3041 3035
3168 3166 3165 3162 3160 3157 3154 3151 3147 3144 3140 3136 3132 3127 3124 3120 3115 3111 3107 3103 3101 3096 3092 3089 3084 3078 3075 3071 3070 3068 3067 3065 3064 3063 3062 3058 3057 3054 3054 3053 3047 3042 3037 3030 3025 3029 3027
3166 3164 3162 3160 3158 3155 3152 3149 3146 3142 3138 3134 3129 3124 3120 3116 3111 3107 3103 3098 3094 3092 3084 3081 3077 3074 3072 3070 3068 3066 3066 3065 3063 3061 3060 3056 3049 3050 3045 3040 3036 3033 3029 3019 3015 3019 3018
3165 3163 3161 3159 3155 3152 3150 3146 3143 3139 3135 3131 3126 3121 3116 3111 3108 3104 3099 3096 3091 3086 3082 3074 3073 3072 3071 3070 3066 3065 3064 3060 3058 3055 3055 3051 3046 3043 3037 3033 3029 3024 3022 3015 3011 3007 3006
3163 3161 3159 3156 3153 3150 3147 3143 3140 3136 3131 3127 3122 3118 3112 3108 3105 3099 3095 3092 3087 3082 3075 3074 3072 3070 3070 3067 3065 3063 3059 3057 3054 3051 3047 3043 3040 3036 3032 3027 3027 3013 3019 3010 3003 3002 2993
3161 3159 3157 3154 3151 3148 3145 3141 3137 3132 3127 3123 3118 3113 3108 3103 3099 3095 3091 3087 3083 3079 3077 3075 3071 3069 3067 3069 3065 3055 3052 3050 3047 3044 3047 3036 3034 3029 3025 3022 3017 3008 3008 3003 2997 2992 2989
3159 3157 3155 3152 3149 3146 3142 3139 3134 3129 3124 3119 3114 3109 3104 3100 3096 3092 3087 3083 3080 3079 3073 3072 3070 3067 3065 3061 3055 3053 3050 3043 3043 3033 3034 3032 3030 3026 3019 3013 3012 3007 3000 2995 2989 2984 2977
3157 3155 3152 3150 3146 3143 3139 3135 3131 3126 3121 3116 3110 3105 3101 3097 3093 3088 3084 3081 3080 3076 3077 3072 3068 3063 3060 3054 3051 3050 3046 3042 3034 3030 3027 3026 3024 3019 3014 3010 3006 3003 3000 2991 2984 2976 2968
3153 3152 3150 3147 3144 3140 3137 3133 3127 3123 3117 3112 3107 3102 3098 3094 3090 3086 3083 3081 3080 3077 3075 3071 3065 3060 3055 3052 3050 3044 3045 3042 3036 3032 3028 3022 3016 3017 3012 3014 3009 3004 3002 2993 2980 2973 2971
3150 3148 3146 3143 3140 3137 3133 3130 3125 3119 3113 3109 3104 3100 3095 3091 3088 3085 3083 3081 3079 3075 3071 3066 3062 3056 3056 3053 3048 3044 3042 3038 3035 3032 3033 3025 3015 3013 3013 3009 3009 3000 2998 2993 2987 2983 2976
3147 3145 3143 3140 3137 3133 3130 3126 3121 3116 3110 3106 3101 3096 3093 3089 3085 3082 3081 3079 3076 3072 3069 3064 3062 3057 3055 3050 3047 3045 3041 3036 3035 3033 3031 3026 3012 3014 3006 3003 3000 2996 2993 2987 2982 2975 2965
3144 3142 3139 3136 3133 3130 3127 3122 3118 3112 3108 3103 3099 3093 3090 3087 3083 3081 3078 3075 3071 3068 3065 3064 3059 3055 3053 3049 3046 3044 3042 3039 3034 3030 3029 3023 3017 3009 3005 3001 2995 2989 2988 2985 2982 2978 2972
3140 3138 3136 3132 3130 3127 3123 3119 3115 3110 3106 3102 3097 3093 3089 3085 3083 3077 3073 3070 3067 3062 3060 3058 3055 3050 3049 3046 3042 3041 3040 3038 3033 3029 3024 3021 3014 3007 3005 3000 2996 2992 2992 2991 2988 2979 2977
3137 3134 3132 3129 3125 3122 3119 3115 3111 3108 3105 3100 3096 3092 3087 3084 3081 3073 3069 3067 3064 3059 3056 3053 3052 3047 3046 3045 3044 3040 3038 3036 3032 3027 3023 3020 3015 3008 3002 3000 2996 2994 2992 2987 2986 2984 2978
3133 3130 3128 3125 3120 3116 3113 3111 3108 3105 3102 3098 3094 3091 3085 3081 3077 3074 3068 3064 3060 3057 3053 3050 3049 3046 3044 3043 3042 3039 3037 3034 3030 3027 3024 3022 3018 3013 3011 3005 2999 2994 2991 2986 2984 2984 2979
3129 3127 3123 3118 3114 3112 3109 3107 3105 3102 3099 3097 3094 3090 3085 3080 3072 3068 3065 3063 3059 3055 3051 3049 3047 3044 3043 3041 3039 3037 3035 3032 3029 3026 3023 3020 3017 3013 3008 3004 3000 2998 2995 2991 2989 2990 2988
3126 3121 3118 3114 3111 3109 3107 3105 3102 3099 3096 3095 3094 3091 3085 3081 3077 3073 3066 3060 3056 3052 3051 3049 3045 3042 3041 3040 3038 3035 3033 3030 3029 3025 3022 3020 3016 3011 3006 3003 3002 2999 2999 2997 2996 2993 2991
3120 3116 3113 3110 3108 3106 3104 3102 3099 3096 3094 3092 3090 3087 3082 3078 3073 3069 3067 3061 3056 3052 3048 3046 3043 3040 3039 3037 3034 3033 3031 3030 3029 3026 3023 3020 3016 3011 3005 3002 3000 3000 2999 2999 2997 2995 2991
3116 3113 3110 3107 3105 3103 3101 3098 3096 3093 3091 3089 3085 3082 3078 3074 3070 3069 3065 3061 3057 3052 3048 3045 3044 3040 3038 3035 3034 3033 3031 3030 3029 3027 3024 3021 3017 3012 3008 3002 2998 3003 3001 3000 2998 2994 2990
3112 3109 3107 3105 3102 3099 3098 3096 3093 3090 3088 3086 3082 3080 3074 3069 3065 3064 3062 3061 3057 3051 3048 3046 3043 3041 3037 3035 3035 3033 3032 3032 3030 3028 3025 3022 3019 3015 3012 3006 3003 3002 3000 2996 2994 2993 2988
3109 3107 3104 3101 3100 3098 3094 3092 3089 3087 3084 3081 3078 3074 3070 3066 3064 3060 3058 3057 3059 3055 3052 3047 3044 3042 3039 3037 3035 3034 3031 3032 3029 3028 3025 3023 3020 3018 3014 3009 3001 3003 2999 2998 2994 2990 2986
3104 3102 3101 3098 3097 3096 3092 3089 3087 3084 3081 3078 3073 3069 3065 3063 3059 3058 3056 3054 3053 3053 3051 3048 3045 3042 3040 3039 3037 3035 3033 3033 3030 3028 3026 3023 3020 3018 3015 3011 3007 3002 2998 2994 2994 2993 2983
3099 3098 3096 3095 3095 3092 3090 3087 3083 3081 3079 3075 3070 3066 3065 3060 3057 3055 3053 3052 3051 3052 3051 3048 3046 3045 3043 3040 3039 3037 3035 3033 3031 3030 3028 3026 3022 3019 3016 3010 3007 3003 2999 2997 2993 2985 2980
3095 3093 3092 3092 3091 3089 3087 3084 3081 3078 3076 3071 3067 3063 3060 3058 3056 3055 3051 3051 3051 3050 3049 3047 3047 3045 3043 3042 3041 3038 3036 3033 3032 3030 3027 3026 3025 3022 3020 3013 3008 3004 2997 2993 2987 2980 2975